Regional Weather Roundup
Issued by NWS Charleston, SC

Current Version | Previous Version | Graphics & Text | Print | Product List | Glossary On
Versions: 1 2 3 4 5 6 7 8 9 10 11 12 13 14 15 16 17 18 19 20 21 22 23 24 25 26 27 28 29 30 31 32 33 34 35 36 37 38 39 40 41 42 43 44 45 46 47 48 49 50
000
ASUS42 KCHS 291828
RWRCHS

REGIONAL WEATHER ROUNDUP
NATIONAL WEATHER SERVICE CHARLESTON SC
200 PM EDT FRI JUL 29 2016

NOTE: "FAIR" INDICATES FEW OR NO CLOUDS BELOW 12,000 FEET WITH NO
SIGNIFICANT WEATHER AND/OR OBSTRUCTIONS TO VISIBILITY.

NOT ALL STATIONS ARE QUALITY CONTROLLED. USE DATA WITH CAUTION...
ESPECIALLY DEWPOINT OBSERVATIONS.

SCZ027-030-031-034>040-042>050-291900-
...SOUTHEAST SOUTH CAROLINA...

CITY           SKY/WX    TMP DP  RH WIND       PRES   REMARKS
N CHARLESTON   MOSUNNY   97  67  37 W15G24    29.94F HX 101
6HR MIN TEMP:  82; 6HR MAX TEMP:  97;

WATERFRONT PRK   N/A     94  69  43 W9        29.94F HX  99
MOUNT PLEASANT FAIR      97  70  41 W10G16    29.94S HX 103
JOHNS ISLAND   FAIR      99  70  39 W9G22     29.95S HX 105
PINOPOLIS        N/A     91  72  52 W15       29.86F HX  98
MONCKS CORNER  FAIR      93  61  33 W9G16     29.93F HX  93
SUMMERVILLE    FAIR      97  66  36 SW10G22   29.95S HX 100
BEAUFORT MCAS  MOSUNNY   98  68  37 W15G22    29.97F HX 103
6HR MIN TEMP:  82; 6HR MAX TEMP: 100;

BEAUFORT ARPT  FAIR      95  70  43 W10G18    29.96F HX 101
HILTON HEAD IS SUNNY    100  72  39 SW12G21   29.98F HX 109
WALTERBORO     CLEAR     97  63  32 W14G23    29.96F HX  98
ALLENDALE      FAIR      95  68  41 VRB7G13   29.96S HX  99

...SOUTHERN MIDLANDS AND PEE DEE...

CITY           SKY/WX    TMP DP  RH WIND       PRES   REMARKS
GEORGETOWN     FAIR      93  70  46 W16G22    29.94S HX  99
KINGSTREE      FAIR      95  70  43 W12       29.93S HX 101
ORANGEBURG     SUNNY     95  69  42 W14G21    29.95F HX 100
6HR MIN TEMP:  80; 6HR MAX TEMP:  96;

BARNWELL       NOT AVBL
AIKEN          FAIR      95  66  38 W16       30.00S HX  98
MANNING        FAIR      93  70  46 W6        29.93F HX  99
COLUMBIA       PTSUNNY   95  68  41 NW12      29.93F HX  99
6HR MIN TEMP:  81; 6HR MAX TEMP:  97;

SUMTER         MOSUNNY   95  69  42 W9        29.91F HX 100
6HR MIN TEMP:  81; 6HR MAX TEMP:  95;

FLORENCE       MOSUNNY   92  72  51 W9        29.93S HX  99
6HR MIN TEMP:  81; 6HR MAX TEMP:  92;

MYRTLE BEACH   MOSUNNY   97  70  41 W12G17    29.93F HX 103
N MYRTLE BEACH SUNNY     94  72  48 VRB6      29.91S HX 102
6HR MIN TEMP:  84; 6HR MAX TEMP:  94;


$$

GAZ063-065-086>088-099>101-113>116-118-119-134>141-150-291900-
...SOUTHEAST GEORGIA...

CITY           SKY/WX    TMP DP  RH WIND       PRES   REMARKS
SAVANNAH ARPT  MOSUNNY   97  69  40 W12G20    29.98F HX 103
6HR MIN TEMP:  80; 6HR MAX TEMP:  97;

HUNTER AAF     MOSUNNY   97  75  49 W13       29.96F HX 109
6HR MIN TEMP:  81; 6HR MAX TEMP:  97;

FORT STEWART   MOSUNNY   96  70  42 VRB5G18   29.96F HX 102
6HR MIN TEMP:  80; 6HR MAX TEMP:  96;

STATESBORO     SUNNY     96  71  44 W9G16     29.98F HX 103
SYLVANIA       NOT AVBL
CLAXTON        FAIR      97  71  41 CALM      29.98F HX 104

...CSRA...CENTRAL AND FAR SOUTHEAST GEORGIA...

CITY           SKY/WX    TMP DP  RH WIND       PRES   REMARKS
THOMSON        NOT AVBL
AUGUSTA-BUSH   PTSUNNY   94  67  41 W13G22    29.96F HX  97
6HR MIN TEMP:  79; 6HR MAX TEMP:  97;

AUGUSTA-DANIEL MOSUNNY   95  67  39 W12G28    29.98F HX  99
SWAINSBORO     FAIR      95  66  38 W9G18     30.00F HX  98
VIDALIA        MOSUNNY   97  64  34 NW9       29.99F HX  99
EASTMAN        FAIR      95  53  23 W6        30.03F HX  92
HAZLEHURST     FAIR      99  67  35 CALM      29.99F HX 103
ALMA           MOSUNNY   95  69  42 W12       30.01F HX 100
6HR MIN TEMP:  78; 6HR MAX TEMP:  96;

WAYCROSS       MOSUNNY  100  73  42 W10G18    30.00F HX 110
JESUP          MOCLDY    97  75  49 NW5       30.00S HX 109
BAXLEY         PTSUNNY   97  72  44 SW5       30.00F HX 105
BRUNSWICK      MOSUNNY   97  73  46 W9        30.00F HX 107
SAINT SIMONS   SUNNY     97  66  36 SW13      30.00F HX 100
6HR MIN TEMP:  81; 6HR MAX TEMP:  98;


$$

SCZ027-028-034-036>038-045-046-048>050-GAZ119-141-291900-
...LAKE AND SUPPLEMENTAL COASTAL OBSERVATIONS...

STATION/POSITION TIME  TEMP    WIND        PRES    WAVE   SWELL
                       AIR SEA DIR/SP/G            HT/PER HT/PER/DIR
                 (UTC) (F)     (DEG/KT/KT) (MB)    (FT/S) (FT/S/D)
WINYAH BAY       1745   93     260/  8     1013.0S
LAKE MURRAY      1800   91     270/  9/ 16 1013.2F
ACE BASIN NERRS  1700   94     270/  3     1015.0S
FORT PULASKI     1800   92 87  290/  9/ 11 1015.6F
SAPELO ISLAND    1800   96     230/  8     1016.0S

$$

ANZ835-935-AMZ111-154-330-350-352-354-370-450-454-472-291900-
...C-MAN AND BUOY OBSERVATIONS...

STATION/POSITION TIME  TEMP    WIND        PRES    WAVE   SWELL
                       AIR SEA DIR/SP/G            HT/PER HT/PER/DIR
                 (UTC) (F)     (DEG/KT/KT) (MB)    (FT/S) (FT/S/D)
BUOY 41004       1750   86 86  230/ 12/ 14 1014.3F   3/ 6   2/140/ 9
BUOY 41008       1750   87 88  180/  8/ 10 1016.1F   1/ 5   2/160/ 5
FOLLY BEACH CMAN 1800   96     260/  7/ 11 1014.4F
CAPERS NEARSHORE 1708   89 85  260/ 12/ 17 1014.0F
FRIPP NEARSHORE  1808   90 88  250/ 10/ 14 1014.3F


STATION/POSITION TIME  TEMP    WIND        PRES    WAVE   SWELL
                       AIR SEA DIR/SP/G            HT/PER HT/PER/DIR
                 (UTC) (F)     (DEG/KT/KT) (MB)    (FT/S) (FT/S/D)
5E ST. MARYS GA  1801      87                N/A     1/ 4
FRYING PAN BUOY  1800   85 85  220/ 16/ 19 1013.4F
BUOY 41025       1750   86 85  220/ 17/ 21 1011.9F   4/ 6   2/340/ 8
CAPE LOOKOUT NC  1800   88     220/ 13/ 19 1011.9F
BUOY 41002       1750   85 85  230/ 10/ 10 1016.0F   3/ 6   3/240/ 6
BUOY 41010       1720   85 87  280/ 10/ 12 1017.8F
ST AUGUSTINE FL  1800   84 86   90/  9/ 10 1017.9F


$$




USA.gov is the U.S. government's official web portal to all federal, state and local government web resources and services.